Location: Wald
(31.7579°N, 86.6655°W)
Time: 12:12:18
(UTC+00:00)

USA 238 DEB - Pass Details

Date: 14 July 2020
Orbit: 1012 x 1200 km, 63.4° (Epoch: 05 August)

Event Time Altitude Azimuth Distance (km) Brightness Sun altitude
Exits shadow 08:20:46 37° 158° (SSE) 1,519 4.2 -25.9°
Maximum altitude 08:22:45 49° 114° (ESE) 1,303 4.2 -25.7°
Drops below altitude 10° 08:29:09 10° 41° (NE) 2,863 7.0 -24.8°
Sets 08:31:55 0° 36° (NE) 3,845 8.0 -24.4°
